Content
SEND FEEDBACK

Daily
Averages
Monthly
Summary
United States of America

HAZELWOOD, MISSOURI


Home > North America > United States > Missouri
Elevation: 570 feet     Latitude: 38 45N     Longitude: 090 22W

WEATHER
 
SELECT A DAY
Number of Records: 196,291;   Date Range: 1/1/95 - 7/22/14
 
SHARE

PRINT THIS DATA

[ ← Previous Day ]
WEATHER ALMANAC - APRIL 30, 2013
[ Next Day → ]
[ °C ]   °F
Weather ElementAverageHighLow
Temperature75.4 °F87.1 °F (2:54 pm)60.1 °F (5:54 am)
Dewpoint53.3 °F59 °F (1:54 am)46.9 °F (5:54 pm)
Humidity50.3 %84 % (3:54 am)27 % (3:54 pm)
Barometer29.83 in29.92 in (11:54 pm)29.77 in (1:54 am)
Wind Speed7.6 mph12.7 mph (3:54 pm)
Wind Gust23 mph (3:54 pm)
Weather ElementAverage
Visibility10 mi
Wind DirectionS (177.8 °)

Weather ElementTotal
Precipitation---
Cooling Degree Days8.6 (Base 65)
Growing Degree Days23.6 (Base 50)
Averaged from 23 records on April 30, 2013
WEATHER CONDITIONS BREAKOUT
WIND DIRECTION BREAKOUT
WEATHER BY HOUR - APRIL 30, 2013
[ °C ]   °F
Local TimeTemperatureDewpointHumidityBarometerVisibilityWind DirectionWind SpeedGust SpeedPrecipitationEventsConditions
1:54 AM68.0 °F59.0 °F73 %29.77 in10.0 miSouth (190°)8.1 mphClear
2:54 AM66.0 °F59.0 °F78 %29.77 in10.0 miSSW (200°)5.8 mphClear
3:54 AM62.1 °F57.0 °F84 %29.78 in10.0 miCalmClear
4:54 AM61.0 °F55.9 °F83 %29.80 in10.0 miSouth (190°)4.6 mphClear
5:54 AM60.1 °F55.0 °F83 %29.81 in10.0 miCalmClear
6:54 AM64.0 °F55.9 °F75 %29.83 in10.0 miSW (220°)4.6 mphScattered Clouds
7:54 AM68.0 °F57.0 °F68 %29.85 in10.0 miSW (220°)4.6 mphMostly Cloudy
8:54 AM73.0 °F57.0 °F57 %29.85 in10.0 miSW (230°)9.2 mphScattered Clouds
9:54 AM75.9 °F57.0 °F52 %29.85 in10.0 miSW (230°)10.4 mphScattered Clouds
10:54 AM80.1 °F55.9 °F43 %29.85 in10.0 miWSW (240°)10.4 mphClear
11:54 AM82.9 °F55.0 °F38 %29.83 in10.0 miWSW (250°)6.9 mphScattered Clouds
12:54 PM84.0 °F52.0 °F33 %29.82 in10.0 miSSW (200°)6.9 mph19.6 mphScattered Clouds
1:54 PM86.0 °F51.1 °F30 %29.81 in10.0 miSSW (200°)10.4 mph18.4 mphScattered Clouds
2:54 PM87.1 °F52.0 °F30 %29.80 in10.0 miSW (220°)9.2 mphPartly Cloudy
3:54 PM86.0 °F48.0 °F27 %29.79 in10.0 miSouth (180°)12.7 mph23.0 mphClear
4:54 PM86.0 °F48.0 °F27 %29.80 in10.0 miSouth (170°)11.5 mph18.4 mphScattered Clouds
5:54 PM84.0 °F46.9 °F27 %29.81 in10.0 miSouth (180°)11.5 mph20.7 mphScattered Clouds
6:54 PM82.9 °F50.0 °F32 %29.81 in10.0 miSouth (170°)6.9 mph16.1 mphScattered Clouds
7:54 PM80.1 °F48.9 °F34 %29.84 in10.0 miSSE (160°)9.2 mphPartly Cloudy
8:54 PM77.0 °F50.0 °F39 %29.87 in10.0 miSSE (150°)6.9 mphPartly Cloudy
9:54 PM75.0 °F51.1 °F43 %29.89 in10.0 miSSE (160°)8.1 mphClear
10:54 PM73.0 °F52.0 °F48 %29.91 in10.0 miSouth (170°)11.5 mphClear
11:54 PM71.1 °F53.1 °F53 %29.92 in10.0 miSSE (160°)5.8 mphClear
Hourly data recorded from KSUS, located miles away from Hazelwood, Missouri







STORIES FROM OUR PARTNERS